Overview Statistics Trail Chart Weather Telemetry Raw packets
 

This is the latest recevied weather packets stored in our database for station/object EA3CH. If no packets are shown the sender has not sent any weather packets the latest 10 day(s).

<< 46 47 48 49 50 >>
Time Temp. Humidity Pressure Rain* Wind** Luminosity Snow
1787741104 24.44° C 74% 1016.9 hPa 0 mm - 0 W/m² -
1787740207 24.44° C 70% 1017 hPa 0 mm - 0 W/m² -
1787739308 24.44° C 56% 1017.3 hPa 0 mm - 0 W/m² -
1787739308 24.44° C 64% 1017.5 hPa 0 mm - 0 W/m² -
1787738406 23.89° C 53% 1014.2 hPa 0 mm - 0 W/m² -
1787738404 23.89° C 63% 1014.3 hPa 0 mm - 0 W/m² -
1787737506 23.33° C 59% 1015 hPa 0 mm - 0 W/m² -
1787737504 23.33° C 67% 1015.1 hPa 0 mm - 0 W/m² -
1787736606 23.33° C 57% 1015.2 hPa 0 mm - 0 W/m² -
1787736604 23.33° C 65% 1015.4 hPa 0 mm - 0 W/m² -
1787735704 23.89° C 63% 1015.4 hPa 0 mm - 0 W/m² -
1787734807 24.44° C 64% 1016.7 hPa 0 mm - 0 W/m² -
1787733907 24.44° C 52% 1015.4 hPa 0 mm - 0 W/m² -
1787733904 24.44° C 61% 1015.6 hPa 0 mm - 0 W/m² -
1787733006 24.44° C 49% 1014.8 hPa 0 mm - 0 W/m² -
1787733005 23.89° C 58% 1015 hPa 0 mm - 0 W/m² -
1787732103 22.22° C 70% 1015.2 hPa 0 mm - 0 W/m² -
1787731205 22.78° C 61% 1015.3 hPa 0 mm - 0 W/m² -
1787731204 22.78° C 71% 1015.5 hPa 0 mm - 0 W/m² -
1787730304 22.22° C 71% 1016 hPa 0 mm - 0 W/m² -
1787729408 21.67° C 67% 1015.9 hPa 0 mm - 0 W/m² -
1787728507 21.11° C 81% 1016.7 hPa 0 mm - 0 W/m² -
1787727604 20.56° C 85% 1015.8 hPa 0 mm - 0 W/m² -
1787726706 21.11° C 75% 1016.4 hPa 0 mm - 0 W/m² -
1787726704 20.56° C 85% 1016.5 hPa 0 mm - 0 W/m² -

* Rain latest hour (hover to see other rain measurements)
** Current wind speed in m/s (hover to see current wind gust speed)